Have a Safe July 4th! 

Flight Track Log - Related Links

Times and Time Zones

All times are in EDT time to prevent confusion due to time zone crossing. See the DCM6278 flight status page for this flight to view local times or setup timezone preferences in your user account.

Time Position Orientation Groundspeed Altitude Reporting Facility
EDT Latitude Longitude Course Direction KTS MPH feet Rate Location/Type
Sat 10:12:20 AM 33.8333 -84.3500 312° West 229 264 3,800  Level Atlanta TRACON
Sat 10:13:30 AM 33.8856 -84.4192 312° West 242 278 7,400 3,369 Climbing Atlanta Center
Sat 10:14:30 AM 33.9542 -84.4744 326° Northwest 271 312 11,100 3,250 Climbing Atlanta Center
Sat 10:15:30 AM 34.0417 -84.5250 334° Northwest 317 365 13,900 2,800 Climbing Atlanta Center
Sat 10:16:30 AM 34.1439 -84.5533 347° North 335 386 16,700 2,650 Climbing Atlanta Center
Sat 10:17:30 AM 34.2481 -84.5792 348° North 359 413 19,200 2,350 Climbing Atlanta Center
Sat 10:18:30 AM 34.3522 -84.6050 348° North 376 433 21,400 2,350 Climbing Atlanta Center
Sat 10:19:30 AM 34.4586 -84.6283 350° North 383 441 23,900 2,400 Climbing Atlanta Center
Sat 10:20:30 AM 34.5608 -84.6567 347° North 378 435 26,200 1,900 Climbing Atlanta Center
Sat 10:21:30 AM 34.6442 -84.6800 347° North 378 435 27,700 1,700 Climbing Atlanta Center
Sat 10:22:30 AM 34.7586 -84.7114 347° North 376 433 29,600 1,900 Climbing Atlanta Center
Sat 10:23:30 AM 34.8692 -84.7425 347° North 386 444 31,500 1,850 Climbing Atlanta Center
Sat 10:24:30 AM 34.9817 -84.7714 348° North 400 460 33,300 1,900 Climbing Atlanta Center
Sat 10:25:30 AM 35.0881 -84.7978 349° North 400 460 35,300 1,350 Climbing Atlanta Center
Sat 10:26:30 AM 35.1964 -84.8267 348° North 395 455 36,000 350 Climbing Atlanta Center
Sat 10:27:30 AM 35.3150 -84.8583 348° North 407 468 36,000  Level Atlanta Center
Sat 10:28:30 AM 35.4378 -84.8900 348° North 431 496 36,000  Level Atlanta Center
Sat 10:29:30 AM 35.5628 -84.9322 345° North 443 510 36,000  Level Atlanta Center
Sat 10:30:30 AM 35.6958 -84.9797 344° North 454 522 36,000  Level Atlanta Center
Sat 10:31:30 AM 35.8292 -85.0147 348° North 459 528 36,000  Level Atlanta Center
Sat 10:32:58 AM 36.0136 -85.0556 350° North 480 552 36,000  Level Indianapolis Center
Sat 10:34:00 AM 36.1447 -85.0819 351° North 474 545 36,000  Level Indianapolis Center
Sat 10:35:02 AM 36.2733 -85.1083 351° North 469 540 36,000  Level Indianapolis Center
Sat 10:36:03 AM 36.4033 -85.1367 350° North 471 542 36,000  Level Indianapolis Center
Sat 10:37:05 AM 36.5331 -85.1639 350° North 470 541 36,000  Level Indianapolis Center
Sat 10:38:07 AM 36.6883 -85.1972 350° North 471 542 36,000  Level Indianapolis Center
Sat 10:39:08 AM 36.8189 -85.2244 351° North 473 544 36,000 -49 Level Indianapolis Center
Sat 10:40:10 AM 36.9494 -85.2528 350° North 475 547 35,900 -532 Descending Indianapolis Center
Sat 10:41:12 AM 37.0761 -85.2803 350° North 480 552 34,900 -919 Descending Indianapolis Center
Sat 10:42:14 AM 37.2083 -85.3078 351° North 482 555 34,000 -435 Descending Indianapolis Center
Sat 10:43:16 AM 37.3681 -85.3428 350° North 497 572 34,000  Level Indianapolis Center
Sat 10:44:17 AM 37.4844 -85.3675 350° North 501 577 34,000  Level Indianapolis Center
Sat 10:45:19 AM 37.6436 -85.4044 350° North 499 574 34,000  Level Indianapolis Center
Sat 10:46:21 AM 37.7814 -85.4350 350° North 501 577 34,000  Level Indianapolis Center
Sat 10:47:23 AM 37.9178 -85.4625 351° North 510 587 34,000 -537 Level Indianapolis Center
Sat 10:48:24 AM 38.0539 -85.4928 350° North 500 575 32,900 -1,805 Descending Indianapolis Center
Sat 10:49:26 AM 38.1869 -85.5231 350° North 490 564 30,300 -2,806 Descending Indianapolis Center
Sat 10:50:28 AM 38.3525 -85.5586 350° North 499 574 27,100 -2,758 Descending Indianapolis Center
Sat 10:51:30 AM 38.4844 -85.5889 350° North 485 558 24,600 -1,839 Descending Indianapolis Center
Sat 10:52:32 AM 38.6072 -85.6172 350° North 454 522 23,300 -1,902 Descending Indianapolis Center
Sat 10:53:33 AM 38.7394 -85.6464 350° North 452 520 20,700 -2,341 Descending Indianapolis Center
Sat 10:54:35 AM 38.8561 -85.6736 350° North 432 497 18,500 -2,129 Descending Indianapolis Center
Sat 10:55:37 AM 38.9692 -85.6986 350° North 418 481 16,300 -2,081 Descending Indianapolis Center
Sat 10:56:39 AM 39.0764 -85.7233 350° North 397 457 14,200 -1,122 Descending Indianapolis Center
Sat 10:57:40 AM 39.1825 -85.7433 352° North 390 449 14,000 -683 Descending Indianapolis Center
Sat 10:58:42 AM 39.2858 -85.7611 352° North 379 436 12,800 -1,258 Descending Indianapolis Center
Sat 10:59:44 AM 39.3800 -85.8475 325° Northwest 352 405 11,400 -1,306 Descending Indianapolis Center
Sat 11:00:46 AM 39.4492 -85.9294 318° Northwest 339 390 10,100 -927 Descending Indianapolis Center
Sat 11:01:47 AM 39.5092 -86.0008 317° Northwest 294 338 9,500 -878 Descending Indianapolis Center
Sat 11:02:49 AM 39.5642 -86.0661 318° Northwest 271 312 8,300 -919 Descending Indianapolis Center
Sat 11:03:51 AM 39.6167 -86.1289 317° Northwest 262 302 7,600 -871 Descending Indianapolis Center
Sat 11:04:53 AM 39.6742 -86.1794 326° Northwest 260 299 6,500 -1,113 Descending Indianapolis Center
Sat 11:05:55 AM 39.7586 -86.1975 351° North 264 304 5,300 -1,161 Descending Indianapolis Center
Sat 11:06:57 AM 39.8264 -86.2061 354° North 256 295 4,100 -927 Descending Indianapolis Center
Sat 11:07:58 AM 39.8836 -86.2183 351° North 228 262 3,400 -488 Descending Indianapolis Center
Sat 11:09:00 AM 39.9339 -86.2328 348° North 220 253 3,100 -290 Descending Indianapolis Center

Login

Don't have an account? Register now (free) for customized features, flight alerts, and more!